FDX488 KMCO-KDCA

Flight info

Callsign FDX488
Flight time N/A
Altitude 31000
Route FATHE4 VIYAP Q87 RAYVO Q113 AARNN WAVES CAPSS4
Aircraft B77L/H-SDE1E2E3FGHIJ2J3J4J5M1RWXY/LB1D1

Departure

Time 2026-04-24 06:04
Airport Orlando International Airport (KMCO)

Arrival

Time N/A
Airport Ronald Reagan Washington National Airport (KDCA)
Time Latitude Longitude Altitude Speed Heading
2026-04-24 06:04 28.66008 -81.34796 14551 ft 403 kts 15°
2026-04-24 06:04 28.68703 -81.33908 15264 ft 407 kts 15°
2026-04-24 06:04 28.71456 -81.33000 15971 ft 412 kts 15°
2026-04-24 06:05 28.74226 -81.32087 16664 ft 416 kts 14°
2026-04-24 06:05 28.77026 -81.31163 17344 ft 421 kts 14°
2026-04-24 06:05 28.79813 -81.30243 17996 ft 426 kts 14°
2026-04-24 06:05 28.82717 -81.29489 18609 ft 429 kts
2026-04-24 06:06 28.85702 -81.29134 19207 ft 431 kts
2026-04-24 06:06 28.88703 -81.29136 19828 ft 432 kts 354°
2026-04-24 06:06 28.91714 -81.29418 20438 ft 435 kts 353°
2026-04-24 06:06 28.94730 -81.29726 21058 ft 438 kts 353°
2026-04-24 06:07 28.97781 -81.30010 21641 ft 442 kts 353°
2026-04-24 06:07 29.00865 -81.30296 22218 ft 445 kts 353°
2026-04-24 06:07 29.03968 -81.30640 22762 ft 448 kts 352°
2026-04-24 06:07 29.07087 -81.31001 23332 ft 452 kts 352°
2026-04-24 06:08 29.10226 -81.31359 23852 ft 455 kts 352°
2026-04-24 06:08 29.13399 -81.31664 24321 ft 459 kts 354°
2026-04-24 06:08 29.16604 -81.31869 24809 ft 462 kts 355°
2026-04-24 06:08 29.19823 -81.32033 25288 ft 465 kts 355°
2026-04-24 06:09 29.23028 -81.32191 25762 ft 468 kts 355°
2026-04-24 06:09 29.26289 -81.32360 26236 ft 471 kts 355°
2026-04-24 06:09 29.29577 -81.32543 26677 ft 474 kts 355°
2026-04-24 06:09 29.32875 -81.32736 27116 ft 477 kts 355°
2026-04-24 06:10 29.36198 -81.32935 27563 ft 480 kts 355°
2026-04-24 06:10 29.39547 -81.33139 27990 ft 483 kts 355°
2026-04-24 06:10 29.42911 -81.33343 28422 ft 485 kts 355°
2026-04-24 06:11 29.49695 -81.33754 29276 ft 489 kts 356°
2026-04-24 06:11 29.53083 -81.33958 29905 ft 487 kts 356°
2026-04-24 06:11 29.56453 -81.34161 30490 ft 483 kts 356°
2026-04-24 06:11 29.59805 -81.34364 31015 ft 481 kts 356°
2026-04-24 06:12 29.63151 -81.34567 31058 ft 482 kts 356°
2026-04-24 06:12 29.69823 -81.34958 31067 ft 478 kts 357°
2026-04-24 06:13 29.76464 -81.35334 31085 ft 477 kts 357°
2026-04-24 06:13 29.83100 -81.35712 31085 ft 477 kts 357°
2026-04-24 06:14 29.89735 -81.36092 31084 ft 477 kts 357°
2026-04-24 06:14 29.96366 -81.36474 31082 ft 477 kts 357°
2026-04-24 06:15 30.02999 -81.36856 31084 ft 477 kts 357°
2026-04-24 06:15 30.09631 -81.37239 31082 ft 477 kts 357°
2026-04-24 06:16 30.16223 -81.37619 31078 ft 477 kts 357°
2026-04-24 06:16 30.22851 -81.38003 31078 ft 477 kts 357°
2026-04-24 06:17 30.29481 -81.38387 31082 ft 477 kts 357°
2026-04-24 06:17 30.36125 -81.38772 31083 ft 477 kts 357°
2026-04-24 06:18 30.42762 -81.39158 31083 ft 477 kts 357°
2026-04-24 06:18 30.49403 -81.39536 31081 ft 477 kts 357°
2026-04-24 06:19 30.56043 -81.39888 31075 ft 477 kts 357°
2026-04-24 06:19 30.62621 -81.40233 31071 ft 477 kts 357°
2026-04-24 06:20 30.69251 -81.40586 31064 ft 477 kts 357°
2026-04-24 06:20 30.75883 -81.40942 31062 ft 477 kts 357°
2026-04-24 06:21 30.82512 -81.41298 31060 ft 477 kts 357°
2026-04-24 06:21 30.89157 -81.41655 31060 ft 477 kts 357°
2026-04-24 06:22 30.95792 -81.42011 31061 ft 477 kts 357°
2026-04-24 06:22 31.02427 -81.42369 31059 ft 477 kts 357°
2026-04-24 06:23 31.09061 -81.42727 31058 ft 477 kts 357°
2026-04-24 06:23 31.15668 -81.43084 31056 ft 478 kts 357°
2026-04-24 06:24 31.22307 -81.43252 31047 ft 477 kts
2026-04-24 06:24 31.28795 -81.41660 31060 ft 478 kts 18°
2026-04-24 06:25 31.34892 -81.38499 31066 ft 479 kts 25°
2026-04-24 06:25 31.40864 -81.35147 31056 ft 479 kts 25°
2026-04-24 06:26 31.46942 -81.31797 31057 ft 480 kts 24°
2026-04-24 06:26 31.52952 -81.28523 31055 ft 480 kts 24°
2026-04-24 06:27 31.59006 -81.25226 31051 ft 479 kts 24°
2026-04-24 06:27 31.65052 -81.21923 31045 ft 479 kts 24°
2026-04-24 06:28 31.71092 -81.18620 31039 ft 479 kts 24°
2026-04-24 06:28 31.77134 -81.15313 31039 ft 479 kts 24°
2026-04-24 06:29 31.83173 -81.12001 31039 ft 479 kts 24°
2026-04-24 06:29 31.89221 -81.08679 31025 ft 480 kts 24°
2026-04-24 06:30 31.95289 -81.05341 31041 ft 481 kts 24°
2026-04-24 06:30 32.01353 -81.01999 31042 ft 482 kts 24°
2026-04-24 06:31 32.07383 -80.98635 31042 ft 482 kts 24°
2026-04-24 06:31 32.13445 -80.95234 31043 ft 483 kts 24°
2026-04-24 06:32 32.19511 -80.91830 31048 ft 483 kts 24°
2026-04-24 06:32 32.25585 -80.88419 31039 ft 483 kts 24°
2026-04-24 06:33 32.31663 -80.85002 31050 ft 483 kts 24°
2026-04-24 06:33 32.37742 -80.81579 31059 ft 483 kts 24°
2026-04-24 06:34 32.43822 -80.78150 31056 ft 483 kts 24°
2026-04-24 06:34 32.49884 -80.74726 31060 ft 483 kts 24°
2026-04-24 06:35 32.55962 -80.71288 31056 ft 483 kts 24°
2026-04-24 06:35 32.62036 -80.67847 31052 ft 483 kts 24°
2026-04-24 06:36 32.68067 -80.64425 31052 ft 483 kts 24°
2026-04-24 06:36 32.74126 -80.60953 31056 ft 484 kts 25°
2026-04-24 06:37 32.80142 -80.57381 31050 ft 484 kts 25°
2026-04-24 06:37 32.86168 -80.53780 31048 ft 484 kts 25°
2026-04-24 06:38 32.92195 -80.50186 31052 ft 484 kts 25°
2026-04-24 06:38 32.98218 -80.46599 31050 ft 484 kts 25°
2026-04-24 06:39 33.04244 -80.43007 31050 ft 484 kts 25°
2026-04-24 06:39 33.10269 -80.39409 31041 ft 484 kts 25°
2026-04-24 06:40 33.16250 -80.35831 31041 ft 484 kts 25°
2026-04-24 06:40 33.22272 -80.32223 31043 ft 484 kts 25°
2026-04-24 06:41 33.28293 -80.28610 31035 ft 484 kts 25°
2026-04-24 06:41 33.33288 -80.25608 31036 ft 484 kts 25°
2026-04-24 06:42 33.39304 -80.21988 31033 ft 484 kts 25°
2026-04-24 06:42 33.45323 -80.18360 31031 ft 484 kts 25°
2026-04-24 06:43 33.51329 -80.14734 31029 ft 483 kts 25°
2026-04-24 06:43 33.57305 -80.11120 31028 ft 483 kts 25°
2026-04-24 06:44 33.63269 -80.07385 31029 ft 484 kts 30°
2026-04-24 06:44 33.68693 -80.02589 31028 ft 485 kts 40°
2026-04-24 06:45 33.73750 -79.97210 31029 ft 485 kts 40°
2026-04-24 06:45 33.78807 -79.91817 31023 ft 486 kts 40°
2026-04-24 06:46 33.83887 -79.86451 31022 ft 486 kts 40°
2026-04-24 06:46 33.88941 -79.81126 31023 ft 486 kts 40°
2026-04-24 06:47 33.94027 -79.75761 31026 ft 486 kts 40°
2026-04-24 06:47 33.99109 -79.70389 31025 ft 486 kts 40°
2026-04-24 06:48 34.04191 -79.65005 31027 ft 486 kts 40°
2026-04-24 06:48 34.09264 -79.59623 31028 ft 486 kts 40°
2026-04-24 06:49 34.14333 -79.54235 31026 ft 486 kts 40°
2026-04-24 06:49 34.19373 -79.48870 31027 ft 486 kts 40°
2026-04-24 06:50 34.24441 -79.43466 31021 ft 486 kts 40°
2026-04-24 06:50 34.29502 -79.38058 31015 ft 486 kts 40°
2026-04-24 06:51 34.34564 -79.32638 31012 ft 485 kts 40°
2026-04-24 06:51 34.39627 -79.27211 31008 ft 485 kts 39°
2026-04-24 06:52 34.45055 -79.22387 31008 ft 482 kts 28°
2026-04-24 06:52 34.50999 -79.18678 31015 ft 481 kts 24°
2026-04-24 06:53 34.56965 -79.15117 31009 ft 481 kts 24°
2026-04-24 06:53 34.62999 -79.11473 31009 ft 481 kts 25°
2026-04-24 06:54 34.68944 -79.07841 31013 ft 481 kts 25°
2026-04-24 06:54 34.74918 -79.04173 31006 ft 481 kts 25°
2026-04-24 06:55 34.80887 -79.00503 31002 ft 481 kts 25°
2026-04-24 06:55 34.86872 -78.96819 30998 ft 481 kts 25°
2026-04-24 06:56 34.92841 -78.93139 31001 ft 481 kts 25°
2026-04-24 06:56 34.98776 -78.89475 31001 ft 481 kts 25°
2026-04-24 06:57 35.04740 -78.85786 31000 ft 481 kts 25°
2026-04-24 06:57 35.10709 -78.82089 30955 ft 480 kts 25°
2026-04-24 06:58 35.16671 -78.78390 30956 ft 480 kts 25°
2026-04-24 06:58 35.22625 -78.74689 30962 ft 480 kts 25°
2026-04-24 06:59 35.28590 -78.70975 30965 ft 480 kts 24°
2026-04-24 06:59 35.34549 -78.67259 30970 ft 480 kts 24°
2026-04-24 07:00 35.40470 -78.63560 30975 ft 480 kts 24°
2026-04-24 07:00 35.46418 -78.59839 30977 ft 480 kts 24°
2026-04-24 07:01 35.52364 -78.56112 30966 ft 480 kts 24°
2026-04-24 07:01 35.58309 -78.52379 30975 ft 479 kts 24°
2026-04-24 07:02 35.64241 -78.48648 30972 ft 479 kts 24°
2026-04-24 07:02 35.70167 -78.44915 30970 ft 478 kts 24°
2026-04-24 07:03 35.76091 -78.41178 30966 ft 478 kts 24°
2026-04-24 07:03 35.82000 -78.37445 30966 ft 477 kts 24°
2026-04-24 07:04 35.87898 -78.33712 30965 ft 477 kts 24°
2026-04-24 07:04 35.93808 -78.29965 30962 ft 476 kts 24°
2026-04-24 07:05 35.99659 -78.26249 30960 ft 476 kts 24°
2026-04-24 07:05 36.05586 -78.22478 30959 ft 475 kts 24°
2026-04-24 07:06 36.11429 -78.18753 30952 ft 475 kts 24°
2026-04-24 07:06 36.17308 -78.15000 30949 ft 475 kts 24°
2026-04-24 07:07 36.23171 -78.11250 30948 ft 474 kts 24°
2026-04-24 07:07 36.31965 -78.05614 30943 ft 474 kts 24°
2026-04-24 07:08 36.37837 -78.01882 30950 ft 473 kts 22°
2026-04-24 07:08 36.43926 -77.98893 30958 ft 470 kts 17°
2026-04-24 07:09 36.50037 -77.96116 30958 ft 470 kts 17°
2026-04-24 07:09 36.56179 -77.93297 30964 ft 471 kts 17°
2026-04-24 07:10 36.62312 -77.90446 30972 ft 471 kts 17°
2026-04-24 07:10 36.68447 -77.87576 30935 ft 471 kts 17°
2026-04-24 07:11 36.74582 -77.84701 30924 ft 471 kts 17°
2026-04-24 07:11 36.80717 -77.81822 30928 ft 471 kts 17°
2026-04-24 07:12 36.86862 -77.78934 30926 ft 471 kts 17°
2026-04-24 07:12 36.92994 -77.76048 30922 ft 471 kts 17°
2026-04-24 07:13 36.99062 -77.73185 30899 ft 461 kts 17°
2026-04-24 07:13 37.04963 -77.70393 30903 ft 449 kts 17°
2026-04-24 07:14 37.10802 -77.67633 30913 ft 447 kts 17°
2026-04-24 07:14 37.16624 -77.64877 30918 ft 447 kts 17°
2026-04-24 07:15 37.22442 -77.62117 30913 ft 447 kts 16°
2026-04-24 07:15 37.28260 -77.59351 30909 ft 448 kts 16°
2026-04-24 07:16 37.34101 -77.56570 30903 ft 449 kts 16°
2026-04-24 07:16 37.39904 -77.53801 30900 ft 449 kts 16°
2026-04-24 07:17 37.45753 -77.51006 30903 ft 449 kts 16°
2026-04-24 07:17 37.51599 -77.48207 30905 ft 449 kts 16°
2026-04-24 07:18 37.57431 -77.45410 30884 ft 444 kts 16°
2026-04-24 07:18 37.60302 -77.44133 30895 ft 432 kts 11°
2026-04-24 07:18 37.63194 -77.43194 30905 ft 427 kts
2026-04-24 07:19 37.68995 -77.41585 30908 ft 426 kts
2026-04-24 07:19 37.74767 -77.39848 30910 ft 427 kts
2026-04-24 07:20 37.80538 -77.38051 30910 ft 427 kts
2026-04-24 07:20 37.86315 -77.36263 30907 ft 427 kts
2026-04-24 07:21 37.92087 -77.34478 30912 ft 427 kts
2026-04-24 07:21 37.97839 -77.32710 30918 ft 428 kts
2026-04-24 07:22 38.03621 -77.30930 30904 ft 428 kts
2026-04-24 07:22 38.09411 -77.29137 30892 ft 428 kts
2026-04-24 07:23 38.15192 -77.27317 30897 ft 428 kts
2026-04-24 07:23 38.20912 -77.25511 30874 ft 412 kts
2026-04-24 07:24 38.23649 -77.24639 30869 ft 398 kts
2026-04-24 07:24 38.26287 -77.23798 30872 ft 383 kts
2026-04-24 07:24 38.31366 -77.22186 30887 ft 374 kts
2026-04-24 07:25 38.33834 -77.21087 30887 ft 382 kts 21°
2026-04-24 07:25 38.36061 -77.19141 30898 ft 397 kts 36°
2026-04-24 07:25 38.40100 -77.14267 30906 ft 401 kts 35°
2026-04-24 07:26 38.44276 -77.09513 30901 ft 403 kts 34°
2026-04-24 07:26 38.45668 -77.07944 30900 ft 403 kts 34°
2026-04-24 07:27 38.49394 -77.03743 30895 ft 400 kts 32°
2026-04-24 07:27 38.51689 -77.01914 30892 ft 380 kts 13°
2026-04-24 07:27 38.54203 -77.01140 30876 ft 366 kts 357°
2026-04-24 07:28 38.59211 -77.01386 30883 ft 361 kts 350°
2026-04-24 07:28 38.64245 -77.01791 30880 ft 364 kts 351°
2026-04-24 07:29 38.68459 -77.02091 30869 ft 365 kts 351°
2026-04-24 07:29 38.74350 -77.02676 30880 ft 364 kts 349°
2026-04-24 07:30 38.78540 -77.03107 30878 ft 363 kts 349°
2026-04-24 07:30 38.83559 -77.03613 30871 ft 361 kts 349°
2026-04-24 07:31 38.88411 -77.04948 30893 ft 358 kts 325°
2026-04-24 07:31 38.90384 -77.06919 30898 ft 364 kts 313°
2026-04-24 07:31 38.91990 -77.09461 30885 ft 373 kts 300°
2026-04-24 07:32 38.93683 -77.15908 30901 ft 395 kts 281°
2026-04-24 07:32 38.93983 -77.19477 30900 ft 406 kts 278°
2026-04-24 07:32 38.94203 -77.23134 30901 ft 415 kts 277°
2026-04-24 07:33 38.94710 -77.30582 30888 ft 418 kts 278°
2026-04-24 07:33 38.95337 -77.37929 30883 ft 415 kts 279°
2026-04-24 07:34 38.96009 -77.45288 30884 ft 413 kts 279°
2026-04-24 07:34 38.96673 -77.52597 30881 ft 411 kts 279°
2026-04-24 07:35 38.97380 -77.59868 30885 ft 406 kts 285°
2026-04-24 07:35 38.98379 -77.63235 30932 ft 403 kts 300°
2026-04-24 07:35 38.99979 -77.66198 30913 ft 405 kts 310°
2026-04-24 07:36 39.04467 -77.70648 30918 ft 416 kts 332°
2026-04-24 07:36 39.07229 -77.71831 30920 ft 424 kts 345°
2026-04-24 07:36 39.10217 -77.72100 30915 ft 436 kts 359°
2026-04-24 07:37 39.13184 -77.71378 30919 ft 448 kts 12°
2026-04-24 07:37 39.16043 -77.69625 30915 ft 463 kts 27°
2026-04-24 07:37 39.18517 -77.66897 30912 ft 477 kts 43°
2026-04-24 07:37 39.20386 -77.63313 30911 ft 490 kts 59°
2026-04-24 07:38 39.21444 -77.59084 30906 ft 502 kts 77°
2026-04-24 07:38 39.21532 -77.54558 30906 ft 510 kts 95°
2026-04-24 07:38 39.20607 -77.50130 30919 ft 514 kts 112°
2026-04-24 07:38 39.18808 -77.46183 30906 ft 513 kts 131°
2026-04-24 07:39 39.13805 -77.39705 30915 ft 510 kts 137°
2026-04-24 07:39 39.08764 -77.33235 30915 ft 513 kts 136°
2026-04-24 07:40 39.03774 -77.26661 30911 ft 514 kts 135°
2026-04-24 07:40 38.98819 -77.20090 30908 ft 515 kts 135°
2026-04-24 07:41 38.93805 -77.13487 30884 ft 515 kts 135°
2026-04-24 07:41 38.91209 -77.10339 30856 ft 509 kts 146°
2026-04-24 07:41 38.88138 -77.08186 30885 ft 500 kts 165°
2026-04-24 07:42 38.84806 -77.07200 30879 ft 489 kts 180°
2026-04-24 07:42 38.81440 -77.07272 30893 ft 479 kts 194°
2026-04-24 07:42 38.78284 -77.08288 30889 ft 468 kts 208°
2026-04-24 07:42 38.75400 -77.10193 30868 ft 456 kts 221°
2026-04-24 07:43 38.73023 -77.12804 30861 ft 445 kts 234°
2026-04-24 07:43 38.71213 -77.15959 30857 ft 435 kts 246°
2026-04-24 07:43 38.70027 -77.19420 30865 ft 427 kts 258°
2026-04-24 07:43 38.69442 -77.23109 30859 ft 421 kts 269°
2026-04-24 07:44 38.69474 -77.26824 30864 ft 416 kts 280°
2026-04-24 07:44 38.70090 -77.30420 30867 ft 413 kts 289°
2026-04-24 07:44 38.72603 -77.36975 30885 ft 412 kts 310°
2026-04-24 07:45 38.76647 -77.42125 30898 ft 410 kts 314°
2026-04-24 07:45 38.80653 -77.47336 30901 ft 411 kts 313°
2026-04-24 07:46 38.84770 -77.52385 30882 ft 411 kts 324°
2026-04-24 07:46 38.87334 -77.54049 30898 ft 417 kts 336°
2026-04-24 07:46 38.90145 -77.55056 30901 ft 423 kts 345°
2026-04-24 07:47 38.96103 -77.55070 30884 ft 441 kts
2026-04-24 07:47 38.99052 -77.53819 30881 ft 453 kts 19°
2026-04-24 07:47 39.01759 -77.51641 30907 ft 465 kts 33°
2026-04-24 07:48 39.04036 -77.48618 30913 ft 478 kts 47°
2026-04-24 07:48 39.05724 -77.44888 30915 ft 490 kts 62°
2026-04-24 07:48 39.06674 -77.40697 30918 ft 500 kts 77°
2026-04-24 07:48 39.06796 -77.36201 30890 ft 508 kts 94°
2026-04-24 07:49 39.06026 -77.31746 30899 ft 512 kts 108°
2026-04-24 07:49 39.04511 -77.27609 30907 ft 514 kts 123°
2026-04-24 07:49 39.02222 -77.24098 30910 ft 510 kts 137°
2026-04-24 07:49 38.99649 -77.20938 30915 ft 511 kts 138°
2026-04-24 07:50 38.94567 -77.14533 30890 ft 513 kts 136°
2026-04-24 07:50 38.89164 -77.08708 30885 ft 503 kts 159°
2026-04-24 07:51 38.85866 -77.07368 30879 ft 494 kts 176°
2026-04-24 07:51 38.82477 -77.07155 30887 ft 483 kts 191°
2026-04-24 07:51 38.79250 -77.07914 30884 ft 473 kts 204°
2026-04-24 07:51 38.76269 -77.09566 30860 ft 462 kts 217°
2026-04-24 07:52 38.73730 -77.11990 30857 ft 450 kts 231°
2026-04-24 07:52 38.71744 -77.15019 30862 ft 440 kts 243°
2026-04-24 07:52 38.70370 -77.18464 30864 ft 431 kts 255°
2026-04-24 07:52 38.69628 -77.22142 30862 ft 423 kts 266°
2026-04-24 07:53 38.69512 -77.25861 30861 ft 417 kts 277°
2026-04-24 07:53 38.70002 -77.29510 30861 ft 413 kts 288°
2026-04-24 07:53 38.72291 -77.36188 30901 ft 411 kts 306°
2026-04-24 07:54 38.76253 -77.41397 30895 ft 408 kts 314°
2026-04-24 07:54 38.80254 -77.46582 30899 ft 409 kts 313°
2026-04-24 07:55 38.84285 -77.51733 30880 ft 409 kts 321°
2026-04-24 07:55 38.86723 -77.53549 30888 ft 414 kts 333°
2026-04-24 07:55 38.89483 -77.54703 30902 ft 421 kts 343°
2026-04-24 07:56 38.95406 -77.55067 30888 ft 438 kts
2026-04-24 07:56 38.98386 -77.54033 30884 ft 450 kts 16°
2026-04-24 07:56 39.01156 -77.52074 30918 ft 463 kts 30°
2026-04-24 07:57 39.03554 -77.49222 30916 ft 476 kts 44°
2026-04-24 07:57 39.05390 -77.45620 30930 ft 488 kts 59°
2026-04-24 07:57 39.06514 -77.41462 30915 ft 499 kts 74°
2026-04-24 07:57 39.06806 -77.36980 30890 ft 508 kts 90°
2026-04-24 07:58 39.06197 -77.32490 30899 ft 513 kts 106°
2026-04-24 07:58 39.04810 -77.28270 30907 ft 515 kts 120°
2026-04-24 07:58 39.02633 -77.24640 30905 ft 510 kts 136°
2026-04-24 07:58 39.00071 -77.21472 30920 ft 510 kts 138°
2026-04-24 07:59 38.95017 -77.15119 30899 ft 513 kts 136°
2026-04-24 07:59 38.89725 -77.09071 30875 ft 505 kts 156°
2026-04-24 08:00 38.86471 -77.07516 30893 ft 496 kts 173°
2026-04-24 08:00 38.83080 -77.07111 30901 ft 485 kts 188°
2026-04-24 08:00 38.79775 -77.07713 30889 ft 475 kts 202°
2026-04-24 08:00 38.76739 -77.09216 30889 ft 464 kts 215°
2026-04-24 08:01 38.74110 -77.11517 30856 ft 452 kts 229°
2026-04-24 08:01 38.72021 -77.14456 30866 ft 441 kts 241°
2026-04-24 08:01 38.70543 -77.17827 30861 ft 432 kts 253°
2026-04-24 08:01 38.69687 -77.21475 30862 ft 424 kts 265°
2026-04-24 08:02 38.69458 -77.25196 30866 ft 418 kts 276°
2026-04-24 08:02 38.69839 -77.28852 30858 ft 413 kts 286°
2026-04-24 08:02 38.71957 -77.35623 30896 ft 410 kts 303°
2026-04-24 08:03 38.73793 -77.38395 30913 ft 407 kts 314°
2026-04-24 08:03 38.75824 -77.40922 30905 ft 408 kts 314°
2026-04-24 08:03 38.79824 -77.46086 30914 ft 409 kts 313°
2026-04-24 08:04 38.83808 -77.51284 30898 ft 407 kts 317°
2026-04-24 08:04 38.86151 -77.53266 30903 ft 413 kts 331°
2026-04-24 08:04 38.88863 -77.54554 30908 ft 419 kts 341°
2026-04-24 08:05 38.94754 -77.55220 30896 ft 436 kts
2026-04-24 08:05 38.97750 -77.54383 30899 ft 448 kts 13°
2026-04-24 08:05 39.00595 -77.52614 30897 ft 461 kts 27°
2026-04-24 08:06 39.03095 -77.49935 30921 ft 474 kts 41°
2026-04-24 08:06 39.05059 -77.46487 30916 ft 486 kts 56°
2026-04-24 08:06 39.06351 -77.42416 30911 ft 497 kts 71°
2026-04-24 08:06 39.06829 -77.37983 30898 ft 506 kts 86°
2026-04-24 08:07 39.06412 -77.33461 30895 ft 512 kts 103°
2026-04-24 08:07 39.05176 -77.29152 30910 ft 514 kts 116°
2026-04-24 08:07 39.03170 -77.25359 30898 ft 513 kts 135°
2026-04-24 08:07 39.00638 -77.22163 30929 ft 510 kts 138°
2026-04-24 08:08 38.95566 -77.15831 30900 ft 513 kts 136°
2026-04-24 08:09 38.87199 -77.07752 30892 ft 498 kts 170°
2026-04-24 08:09 38.83815 -77.07110 30895 ft 488 kts 185°
2026-04-24 08:09 38.80482 -77.07503 30897 ft 477 kts 199°
2026-04-24 08:09 38.77369 -77.08820 30897 ft 466 kts 212°
2026-04-24 08:10 38.74645 -77.10955 30858 ft 455 kts 225°
2026-04-24 08:10 38.72422 -77.13783 30862 ft 444 kts 238°
2026-04-24 08:10 38.70807 -77.17089 30869 ft 434 kts 251°
2026-04-24 08:10 38.69818 -77.20692 30871 ft 426 kts 262°
2026-04-24 08:11 38.69459 -77.24370 30860 ft 419 kts 273°
2026-04-24 08:11 38.69715 -77.28104 30860 ft 414 kts 284°
2026-04-24 08:11 38.70500 -77.31630 30869 ft 411 kts 292°
2026-04-24 08:12 38.73354 -77.37829 30898 ft 407 kts 314°
2026-04-24 08:12 38.76746 -77.42074 30905 ft 408 kts 313°